User: anonymous   Login
Location: Vancouver
(49.2500°N, 123.1330°W)
Time: 06:30:24
(UTC-08:00)
Language:

H-2A R/B - Orbit

View from above orbital plane
View from above orbital plane
View from above satellite
View from above satellite

Ground track
Ground track

The orbit data is extracted from the following two-line orbital elements,

1 27601U 02056E   15063.19217041  .00000308  00000-0  12861-3 0  9991
2 27601 098.4600 144.6123 0071337 250.3642 137.3410 14.31543979638191
Epoch (UTC): 04 March 2015 04:36:43
Eccentricity: 0.0071337
inclination: 98.4600°
perigee height: 735 km
apogee height: 837 km
right ascension of ascending node: 144.6123°
argument of perigee: 250.3642°
revolutions per day: 14.31543979
mean anomaly at epoch: 137.3410°
orbit number at epoch: 63819

The dashed part of the orbit path shows where the satellite is in the earth's shadow,  

DLR